Location: Newark
(59.8814°N, 10.8258°E)
Time: 02:03:24
(UTC+00:00)

Envisat - Pass Details

Date: 01 February 2020
Orbit: 764 x 766 km, 98.1° (Epoch: 25 February)

Event Time Altitude Azimuth Distance (km) Brightness Sun altitude
Rises 05:07:18 0° 20° (NNE) 3,249 6.5 -17.7°
Reaches altitude 10° 05:09:57 10° 32° (NNE) 2,317 5.8 -17.4°
Maximum altitude 05:14:19 28° 91° (E) 1,421 5.2 -16.8°
Drops below altitude 10° 05:18:39 10° 149° (SSE) 2,303 6.0 -16.3°
Sets 05:21:16 0° 162° (SSE) 3,224 6.6 -16.0°
